Weather History for Newton, KS

Change the Weather History Date:

Monday, November 26, 2012

  Actual Average Record
Temperature  
Mean Temperature 32 °F -  
Max Temperature 44 °F 47 °F 69 °F (2005)
Min Temperature 21 °F 31 °F 14 °F (1996)
Degree Days  
Heating Degree Days 32    
Moisture  
Dew Point 23 °F    
Average Humidity 68    
Maximum Humidity 86    
Minimum Humidity 42    
Precipitation  
Precipitation 0.00 in - - ()
Sea Level Pressure  
Sea Level Pressure 30.23 in    
Wind  
Wind Speed 15 mph (NNE)    
Max Wind Speed 26 mph    
Max Gust Speed 37 mph    
Visibility 10 miles    
Events      
Averages and records for this station are not official NWS values.
T = Trace of Precipitation, MM = Missing Value Source: NWS Daily Summary

Daily Weather History Graph

Daily Weather History Graph

Search for Another Location

Airport:

Trip Planner

Search our weather history database for the weather conditions in past years. The results will help you decide how hot, cold, wet, or windy it might be!

Date:

Astronomy

Nov. 26, 2012 Rise Set
Actual Time 7:22 AM CST 5:10 PM CST
Civil Twilight 6:53 AM CST 5:39 PM CST
Nautical Twilight 6:20 AM CST 6:12 PM CST
Astronomical Twilight 5:49 AM CST 6:43 PM CST
Moon 4:03 PM CST (11/26) 5:34 AM CST (11/26)
Length of Visible Light 10h 46m
Length of Day
9h 48m
Waxing Gibbous, 97% of the Moon is Illuminated
Nov 26
Waxing Gibbous
Nov 28
Full
Dec 6
Last Quarter
Dec 13
New
Dec 19
First Quarter

Hourly Weather History & Observations

Time (CST) Temp. Windchill Dew Point Humidity Pressure Visibility Wind Dir Wind Speed Gust Speed Precip Events Conditions
12:15 AM 35.6 °F 27.1 °F 26.6 °F 70% 30.01 in 10.0 mi NE 12.7 mph - N/A   Clear
12:35 AM 35.6 °F 26.6 °F 26.6 °F 70% 30.01 in 10.0 mi NE 13.8 mph 19.6 mph N/A   Clear
12:55 AM 35.6 °F 26.6 °F 26.6 °F 70% 30.00 in 10.0 mi NE 13.8 mph - N/A   Clear
1:15 AM 35.6 °F 27.1 °F 26.6 °F 70% 30.00 in 10.0 mi ENE 12.7 mph 19.6 mph N/A   Clear
1:35 AM 33.8 °F 23.9 °F 26.6 °F 75% 30.00 in 10.0 mi NE 15.0 mph 19.6 mph N/A   Clear
1:55 AM 33.8 °F 23.9 °F 26.6 °F 75% 30.00 in 10.0 mi NE 15.0 mph 19.6 mph N/A   Clear
2:15 AM 33.8 °F 24.3 °F 26.6 °F 75% 30.00 in 10.0 mi ENE 13.8 mph 18.4 mph N/A   Clear
2:35 AM 33.8 °F 24.8 °F 26.6 °F 75% 30.01 in 10.0 mi NE 12.7 mph 18.4 mph N/A   Clear
2:55 AM 33.8 °F 24.8 °F 24.8 °F 70% 30.02 in 10.0 mi NE 12.7 mph - N/A   Clear
3:15 AM 33.8 °F 24.3 °F 24.8 °F 70% 30.02 in 10.0 mi NE 13.8 mph - N/A   Clear
3:35 AM 32.0 °F 23.6 °F 24.8 °F 75% 30.02 in 10.0 mi NE 10.4 mph - N/A   Clear
3:55 AM 30.2 °F 19.8 °F 24.8 °F 80% 30.04 in 10.0 mi NNE 13.8 mph - N/A   Clear
4:15 AM 30.2 °F 19.8 °F 24.8 °F 80% 30.03 in 10.0 mi NE 13.8 mph - N/A   Clear
4:55 AM 30.2 °F 20.2 °F 24.8 °F 80% 30.04 in 10.0 mi NNE 12.7 mph - N/A   Clear
5:15 AM 30.2 °F 19.8 °F 24.8 °F 80% 30.04 in 10.0 mi NE 13.8 mph - N/A   Clear
5:35 AM 30.2 °F 18.9 °F 24.8 °F 80% 30.05 in 10.0 mi NNE 16.1 mph - N/A   Clear
5:55 AM 28.4 °F 17.0 °F 24.8 °F 86% 30.06 in 10.0 mi NNE 15.0 mph 19.6 mph N/A   Clear
6:15 AM 28.4 °F 17.0 °F 23.0 °F 80% 30.07 in 10.0 mi NNE 15.0 mph 19.6 mph N/A   Clear
6:35 AM 28.4 °F 16.6 °F 23.0 °F 80% 30.07 in 10.0 mi NNE 16.1 mph 21.9 mph N/A   Clear
6:55 AM 28.4 °F 17.5 °F 23.0 °F 80% 30.09 in 10.0 mi NNE 13.8 mph 19.6 mph N/A   Clear
7:15 AM 28.4 °F 16.6 °F 23.0 °F 80% 30.10 in 10.0 mi NNE 16.1 mph - N/A   Clear
7:35 AM 28.4 °F 17.5 °F 23.0 °F 80% 30.11 in 10.0 mi NNE 13.8 mph 19.6 mph N/A   Clear
7:55 AM 28.4 °F 17.5 °F 23.0 °F 80% 30.13 in 10.0 mi NNE 13.8 mph - N/A   Clear
8:15 AM 28.4 °F 17.5 °F 24.8 °F 86% 30.15 in 10.0 mi NNE 13.8 mph - N/A   Clear
8:35 AM 30.2 °F 18.1 °F 24.8 °F 80% 30.17 in 10.0 mi NNE 18.4 mph 24.2 mph N/A   Clear
8:55 AM 32.0 °F 20.8 °F 24.8 °F 75% 30.19 in 10.0 mi NNE 17.3 mph 24.2 mph N/A   Clear
9:15 AM 33.8 °F 22.8 °F 24.8 °F 70% 30.20 in 10.0 mi NNE 18.4 mph - N/A   Clear
9:35 AM 35.6 °F 24.5 °F 24.8 °F 65% 30.21 in 10.0 mi NNE 20.7 mph 26.5 mph N/A   Clear
9:55 AM 35.6 °F 25.2 °F 24.8 °F 65% 30.23 in 10.0 mi NNE 18.4 mph 26.5 mph N/A   Clear
10:15 AM 37.4 °F 26.4 °F 24.8 °F 60% 30.24 in 10.0 mi NNE 23.0 mph 29.9 mph N/A   Clear
10:35 AM 37.4 °F 27.5 °F 23.0 °F 56% 30.25 in 10.0 mi NNE 18.4 mph 27.6 mph N/A   Clear
10:55 AM 37.4 °F 26.4 °F 23.0 °F 56% 30.26 in 10.0 mi NNE 23.0 mph 29.9 mph N/A   Clear
11:15 AM 39.2 °F 29.3 °F 24.8 °F 56% 30.26 in 10.0 mi NNE 20.7 mph 27.6 mph N/A   Clear
11:35 AM 37.4 °F 26.9 °F 23.0 °F 56% 30.27 in 10.0 mi NNE 20.7 mph 26.5 mph N/A   Clear
11:55 AM 41.0 °F 30.7 °F 21.2 °F 45% 30.26 in 10.0 mi NNE 25.3 mph 28.8 mph N/A   Clear
12:15 PM 42.8 °F 33.8 °F 21.2 °F 42% 30.27 in 10.0 mi NNE 21.9 mph 32.2 mph N/A   Clear
12:35 PM 44.6 °F 36.1 °F 23.0 °F 43% 30.26 in 10.0 mi NNE 21.9 mph 34.5 mph N/A   Clear
12:55 PM 42.8 °F 34.0 °F 23.0 °F 46% 30.27 in 10.0 mi NNE 20.7 mph 31.1 mph N/A   Clear
1:15 PM 42.8 °F 34.3 °F 24.8 °F 49% 30.27 in 10.0 mi NNE 19.6 mph 29.9 mph N/A   Clear
1:35 PM 44.6 °F 35.5 °F 23.0 °F 43% 30.27 in 10.0 mi NNE 25.3 mph 33.4 mph N/A   Clear
1:55 PM 42.8 °F 33.8 °F 23.0 °F 46% 30.28 in 10.0 mi NNE 21.9 mph 31.1 mph N/A   Clear
2:15 PM 42.8 °F 33.3 °F 21.2 °F 42% 30.28 in 10.0 mi NNE 24.2 mph 36.8 mph N/A   Clear
2:35 PM 42.8 °F 33.1 °F 21.2 °F 42% 30.29 in 10.0 mi NNE 25.3 mph 33.4 mph N/A   Clear
2:55 PM 42.8 °F 32.9 °F 23.0 °F 46% 30.29 in 10.0 mi NNE 26.5 mph 32.2 mph N/A   Clear
3:15 PM 42.8 °F 33.5 °F 21.2 °F 42% 30.30 in 10.0 mi NNE 23.0 mph 31.1 mph N/A   Clear
3:35 PM 41.0 °F 32.2 °F 23.0 °F 49% 30.31 in 10.0 mi NNE 18.4 mph 31.1 mph N/A   Clear
3:55 PM 41.0 °F 31.1 °F 23.0 °F 49% 30.32 in 10.0 mi NNE 23.0 mph 27.6 mph N/A   Clear
4:15 PM 39.2 °F 29.0 °F 23.0 °F 52% 30.32 in 10.0 mi NNE 21.9 mph 25.3 mph N/A   Clear
4:35 PM 39.2 °F 29.3 °F 23.0 °F 52% 30.33 in 10.0 mi NNE 20.7 mph 25.3 mph N/A   Clear
4:55 PM 37.4 °F 27.5 °F 23.0 °F 56% 30.34 in 10.0 mi NNE 18.4 mph 21.9 mph N/A   Clear
5:15 PM 35.6 °F 28.0 °F 23.0 °F 60% 30.36 in 10.0 mi NNE 10.4 mph - N/A   Clear
5:35 PM 33.8 °F 25.8 °F 21.2 °F 60% 30.36 in 10.0 mi NNE 10.4 mph - N/A   Clear
5:55 PM 32.0 °F 24.2 °F 21.2 °F 64% 30.37 in 10.0 mi NNE 9.2 mph - N/A   Clear
6:15 PM 30.2 °F 22.6 °F 21.2 °F 69% 30.38 in 10.0 mi North 8.1 mph - N/A   Clear
6:35 PM 33.8 °F 24.8 °F 24.8 °F 70% 30.39 in 10.0 mi North 12.7 mph - N/A   Clear
6:55 PM 32.0 °F 22.1 °F 24.8 °F 75% 30.39 in 10.0 mi North 13.8 mph - N/A   Clear
7:15 PM 30.2 °F 19.8 °F 23.0 °F 75% 30.41 in 10.0 mi North 13.8 mph - N/A   Clear
7:35 PM 30.2 °F 19.8 °F 23.0 °F 75% 30.41 in 10.0 mi North 13.8 mph - N/A   Clear
7:55 PM 30.2 °F 21.3 °F 23.0 °F 75% 30.41 in 10.0 mi North 10.4 mph - N/A   Clear
8:15 PM 28.4 °F 18.5 °F 23.0 °F 80% 30.42 in 10.0 mi North 11.5 mph - N/A   Clear
8:35 PM 28.4 °F 18.5 °F 23.0 °F 80% 30.43 in 10.0 mi North 11.5 mph - N/A   Clear
8:55 PM 28.4 °F 19.1 °F 23.0 °F 80% 30.44 in 10.0 mi North 10.4 mph - N/A   Clear
9:15 PM 26.6 °F 18.2 °F 21.2 °F 80% 30.44 in 8.0 mi North 8.1 mph - N/A   Clear
9:35 PM 26.6 °F 17.5 °F 21.2 °F 80% 30.45 in 7.0 mi North 9.2 mph - N/A   Clear
9:55 PM 24.8 °F 16.1 °F 19.4 °F 80% 30.45 in 7.0 mi North 8.1 mph - N/A   Clear
10:15 PM 24.8 °F 16.1 °F 19.4 °F 80% 30.45 in 6.0 mi North 8.1 mph - N/A   Clear
10:55 PM 23.0 °F 14.7 °F 19.4 °F 86% 30.45 in 7.0 mi North 6.9 mph - N/A   Clear
11:15 PM 21.2 °F 12.6 °F 17.6 °F 86% 30.46 in 7.0 mi North 6.9 mph - N/A   Clear
11:35 PM 21.2 °F 12.6 °F 17.6 °F 86% 30.47 in 7.0 mi North 6.9 mph - N/A   Clear
11:55 PM 21.2 °F 12.6 °F 17.6 °F 86% 30.46 in 8.0 mi North 6.9 mph - N/A   Clear